Torna al catalogo

DMSP 5D-2 F13 DEB

AttivoSSO
NORAD 40509·DEBRIS·🇺🇸 United States

Lanciato Mar 24, 1995 da Vandenberg Space Force Base

Loading…

Prossimi Passaggi (prossime 24 ore)

TLE

AggiornatoSource: Space-Track

Epoca: Sep 13, 2026, 23:21 UTC

1 40509U 95015CV  26256.97323065  .00000325  00000-0  16296-3 0  9991
2 40509  98.6456 271.5902 0024439  79.0889 281.3038 14.22956325595279

Traccia DMSP 5D-2 F13 DEB in tempo reale con AllMySat

Download on the App Store